Terminal Aerodrome Forecast
Issued by NWS Newport/Morehead City, NC

Home | Current Version | Previous Version | Graphics & Text | Print | Product List | Glossary On
Versions: 1 2 3 4 5 6 7 8 9 10 11 12 13 14 15 16
000
FTUS42 KMHX 310500
TAFEWN
TAF
KEWN 310540Z 3106/0106 18002KT P6SM SKC
     FM310900 00000KT 4SM BR SCT005
     FM311200 17008KT P6SM SCT040
     FM010100 19004KT P6SM SKC=

USA.gov is the U.S. government's official web portal to all federal, state and local government web resources and services.